owner,sensor,date,latitude,longitude,vertical_datum,sea_water_practical_salinity,qcFlag 
DISL,ioos:station:DISL:BSCA:1,2017-09-01T00:00:00Z,30.3288,-87.8293,2.182,14.21,1111122 
DISL,ioos:station:DISL:BSCA:1,2017-09-01T00:30:00Z,30.3288,-87.8293,2.099,14.13,1111122 
DISL,ioos:station:DISL:BSCA:1,2017-09-01T01:00:00Z,30.3288,-87.8293,2.136,14.36,1111122 
DISL,ioos:station:DISL:BSCA:1,2017-09-01T01:30:00Z,30.3288,-87.8293,2.131,15.17,1111122 
DISL,ioos:station:DISL:BSCA:1,2017-09-01T02:00:00Z,30.3288,-87.8293,2.103,15.4,1111122 
DISL,ioos:station:DISL:BSCA:1,2017-09-01T02:30:00Z,30.3288,-87.8293,2.122,14.82,1111122 
DISL,ioos:station:DISL:BSCA:1,2017-09-01T03:00:00Z,30.3288,-87.8293,2.248,15.05,1111122 
DISL,ioos:station:DISL:BSCA:1,2017-09-01T03:30:00Z,30.3288,-87.8293,2.127,15.04,1111122 
DISL,ioos:station:DISL:BSCA:1,2017-09-01T04:00:00Z,30.3288,-87.8293,2.096,14.95,1111122 
DISL,ioos:station:DISL:BSCA:1,2017-09-01T04:30:00Z,30.3288,-87.8293,2.19,14.98,1111122 
DISL,ioos:station:DISL:BSCA:1,2017-09-01T05:00:00Z,30.3288,-87.8293,2.19,14.94,1111122 
DISL,ioos:station:DISL:BSCA:1,2017-09-01T05:30:00Z,30.3288,-87.8293,2.196,14.63,1111122 
DISL,ioos:station:DISL:BSCA:1,2017-09-01T06:00:00Z,30.3288,-87.8293,2.205,14.4,1111122 
DISL,ioos:station:DISL:BSCA:1,2017-09-01T06:30:00Z,30.3288,-87.8293,2.2,14.28,1111122 
DISL,ioos:station:DISL:BSCA:1,2017-09-01T07:00:00Z,30.3288,-87.8293,2.201,14.31,1111122 
DISL,ioos:station:DISL:BSCA:1,2017-09-01T07:30:00Z,30.3288,-87.8293,2.194,13.59,1111122 
DISL,ioos:station:DISL:BSCA:1,2017-09-01T08:00:00Z,30.3288,-87.8293,2.203,13.49,1111122 
DISL,ioos:station:DISL:BSCA:1,2017-09-01T08:30:00Z,30.3288,-87.8293,2.209,13.49,1111122 
DISL,ioos:station:DISL:BSCA:1,2017-09-01T09:00:00Z,30.3288,-87.8293,2.254,13.52,1111122 
DISL,ioos:station:DISL:BSCA:1,2017-09-01T09:30:00Z,30.3288,-87.8293,2.268,13.82,1111122 
DISL,ioos:station:DISL:BSCA:1,2017-09-01T10:00:00Z,30.3288,-87.8293,2.29,13.53,1111122 
DISL,ioos:station:DISL:BSCA:1,2017-09-01T10:30:00Z,30.3288,-87.8293,2.291,14.07,1111122 
DISL,ioos:station:DISL:BSCA:1,2017-09-01T11:00:00Z,30.3288,-87.8293,2.313,14.31,1111122 
DISL,ioos:station:DISL:BSCA:1,2017-09-01T11:30:00Z,30.3288,-87.8293,2.333,14.53,1111122 
DISL,ioos:station:DISL:BSCA:1,2017-09-01T12:00:00Z,30.3288,-87.8293,2.315,14.54,1111122 
DISL,ioos:station:DISL:BSCA:1,2017-09-01T12:30:00Z,30.3288,-87.8293,2.318,14.7,1111122 
DISL,ioos:station:DISL:BSCA:1,2017-09-01T13:00:00Z,30.3288,-87.8293,2.301,14.56,1111122 
DISL,ioos:station:DISL:BSCA:1,2017-09-01T13:30:00Z,30.3288,-87.8293,2.293,14.49,1111122 
DISL,ioos:station:DISL:BSCA:1,2017-09-01T14:00:00Z,30.3288,-87.8293,2.289,14.47,1111122 
DISL,ioos:station:DISL:BSCA:1,2017-09-01T14:30:00Z,30.3288,-87.8293,2.278,14.53,1111122 
DISL,ioos:station:DISL:BSCA:1,2017-09-01T15:00:00Z,30.3288,-87.8293,2.271,14.7,1111122 
DISL,ioos:station:DISL:BSCA:1,2017-09-01T15:30:00Z,30.3288,-87.8293,2.243,14.49,1111122 
DISL,ioos:station:DISL:BSCA:1,2017-09-01T16:00:00Z,30.3288,-87.8293,2.218,14.57,1111122 
DISL,ioos:station:DISL:BSCA:1,2017-09-01T16:30:00Z,30.3288,-87.8293,2.193,14.56,1111122 
DISL,ioos:station:DISL:BSCA:1,2017-09-01T17:00:00Z,30.3288,-87.8293,2.162,14.63,1111122 
DISL,ioos:station:DISL:BSCA:1,2017-09-01T17:30:00Z,30.3288,-87.8293,2.15,14.95,1111122 
DISL,ioos:station:DISL:BSCA:1,2017-09-01T18:00:00Z,30.3288,-87.8293,2.137,14.66,1111122 
DISL,ioos:station:DISL:BSCA:1,2017-09-01T18:30:00Z,30.3288,-87.8293,2.112,14.66,1111122 
DISL,ioos:station:DISL:BSCA:1,2017-09-01T19:00:00Z,30.3288,-87.8293,2.083,14.64,1111122 
DISL,ioos:station:DISL:BSCA:1,2017-09-01T19:30:00Z,30.3288,-87.8293,2.057,14.56,1111122 
DISL,ioos:station:DISL:BSCA:1,2017-09-01T20:00:00Z,30.3288,-87.8293,2.019,14.59,1111122 
DISL,ioos:station:DISL:BSCA:1,2017-09-01T20:30:00Z,30.3288,-87.8293,1.989,14.51,1111122 
DISL,ioos:station:DISL:BSCA:1,2017-09-01T21:00:00Z,30.3288,-87.8293,1.972,14.44,1111122 
DISL,ioos:station:DISL:BSCA:1,2017-09-01T21:30:00Z,30.3288,-87.8293,1.96,14.13,1111122 
DISL,ioos:station:DISL:BSCA:1,2017-09-01T22:00:00Z,30.3288,-87.8293,1.939,14.14,1111122 
DISL,ioos:station:DISL:BSCA:1,2017-09-01T22:30:00Z,30.3288,-87.8293,1.936,14.0,1111122 
DISL,ioos:station:DISL:BSCA:1,2017-09-01T23:00:00Z,30.3288,-87.8293,1.908,14.2,1111122 
DISL,ioos:station:DISL:BSCA:1,2017-09-01T23:30:00Z,30.3288,-87.8293,1.909,14.02,1111122 
DISL,ioos:station:DISL:BSCA:1,2017-09-02T00:00:00Z,30.3288,-87.8293,1.889,14.06,1111122 
DISL,ioos:station:DISL:BSCA:1,2017-09-02T00:30:00Z,30.3288,-87.8293,1.895,13.97,1111122 
DISL,ioos:station:DISL:BSCA:1,2017-09-02T01:00:00Z,30.3288,-87.8293,1.901,13.88,1111122 
DISL,ioos:station:DISL:BSCA:1,2017-09-02T01:30:00Z,30.3288,-87.8293,1.916,13.62,1111122 
DISL,ioos:station:DISL:BSCA:1,2017-09-02T02:00:00Z,30.3288,-87.8293,1.942,13.66,1111122 
DISL,ioos:station:DISL:BSCA:1,2017-09-02T02:30:00Z,30.3288,-87.8293,1.963,13.62,1111122 
DISL,ioos:station:DISL:BSCA:1,2017-09-02T03:00:00Z,30.3288,-87.8293,2.002,13.71,1111122 
DISL,ioos:station:DISL:BSCA:1,2017-09-02T03:30:00Z,30.3288,-87.8293,2.026,13.42,1111122 
DISL,ioos:station:DISL:BSCA:1,2017-09-02T04:00:00Z,30.3288,-87.8293,2.058,13.24,1111122 
DISL,ioos:station:DISL:BSCA:1,2017-09-02T04:30:00Z,30.3288,-87.8293,2.052,13.02,1111122 
DISL,ioos:station:DISL:BSCA:1,2017-09-02T05:00:00Z,30.3288,-87.8293,2.046,12.69,1111122 
DISL,ioos:station:DISL:BSCA:1,2017-09-02T05:30:00Z,30.3288,-87.8293,2.06,12.89,1111122 
DISL,ioos:station:DISL:BSCA:1,2017-09-02T06:00:00Z,30.3288,-87.8293,2.061,12.32,1111122 
DISL,ioos:station:DISL:BSCA:1,2017-09-02T06:30:00Z,30.3288,-87.8293,2.086,12.4,1111122 
DISL,ioos:station:DISL:BSCA:1,2017-09-02T07:00:00Z,30.3288,-87.8293,2.079,12.96,1111122 
DISL,ioos:station:DISL:BSCA:1,2017-09-02T07:30:00Z,30.3288,-87.8293,2.102,13.14,1111122 
DISL,ioos:station:DISL:BSCA:1,2017-09-02T08:00:00Z,30.3288,-87.8293,2.124,13.04,1111122 
DISL,ioos:station:DISL:BSCA:1,2017-09-02T08:30:00Z,30.3288,-87.8293,2.138,13.9,1111122 
DISL,ioos:station:DISL:BSCA:1,2017-09-02T09:00:00Z,30.3288,-87.8293,2.135,14.04,1111122 
DISL,ioos:station:DISL:BSCA:1,2017-09-02T09:30:00Z,30.3288,-87.8293,2.152,13.98,1111122 
DISL,ioos:station:DISL:BSCA:1,2017-09-02T10:00:00Z,30.3288,-87.8293,2.176,13.42,1111122 
DISL,ioos:station:DISL:BSCA:1,2017-09-02T10:30:00Z,30.3288,-87.8293,2.169,13.96,1111122 
DISL,ioos:station:DISL:BSCA:1,2017-09-02T11:00:00Z,30.3288,-87.8293,2.18,13.93,1111122 
DISL,ioos:station:DISL:BSCA:1,2017-09-02T11:30:00Z,30.3288,-87.8293,2.183,13.6,1111122 
DISL,ioos:station:DISL:BSCA:1,2017-09-02T12:00:00Z,30.3288,-87.8293,2.192,13.29,1111122 
DISL,ioos:station:DISL:BSCA:1,2017-09-02T12:30:00Z,30.3288,-87.8293,2.2,13.14,1111122 
DISL,ioos:station:DISL:BSCA:1,2017-09-02T13:00:00Z,30.3288,-87.8293,2.199,13.66,1111122 
DISL,ioos:station:DISL:BSCA:1,2017-09-02T13:30:00Z,30.3288,-87.8293,2.223,13.12,1111122 
DISL,ioos:station:DISL:BSCA:1,2017-09-02T14:00:00Z,30.3288,-87.8293,2.232,13.1,1111122 
DISL,ioos:station:DISL:BSCA:1,2017-09-02T14:30:00Z,30.3288,-87.8293,2.239,13.44,1111122 
DISL,ioos:station:DISL:BSCA:1,2017-09-02T15:00:00Z,30.3288,-87.8293,2.223,13.43,1111122 
DISL,ioos:station:DISL:BSCA:1,2017-09-02T15:30:00Z,30.3288,-87.8293,2.208,13.27,1111122 
DISL,ioos:station:DISL:BSCA:1,2017-09-02T16:00:00Z,30.3288,-87.8293,2.183,13.32,1111122 
DISL,ioos:station:DISL:BSCA:1,2017-09-02T16:30:00Z,30.3288,-87.8293,2.166,12.97,1111122 
DISL,ioos:station:DISL:BSCA:1,2017-09-02T17:00:00Z,30.3288,-87.8293,2.138,12.77,1111122 
DISL,ioos:station:DISL:BSCA:1,2017-09-02T17:30:00Z,30.3288,-87.8293,2.121,12.8,1111122 
DISL,ioos:station:DISL:BSCA:1,2017-09-02T18:00:00Z,30.3288,-87.8293,2.085,12.91,1111122 
DISL,ioos:station:DISL:BSCA:1,2017-09-02T18:30:00Z,30.3288,-87.8293,2.049,12.77,1111122 
DISL,ioos:station:DISL:BSCA:1,2017-09-02T19:00:00Z,30.3288,-87.8293,2.017,12.8,1111122 
DISL,ioos:station:DISL:BSCA:1,2017-09-02T19:30:00Z,30.3288,-87.8293,1.988,12.57,1111122 
DISL,ioos:station:DISL:BSCA:1,2017-09-02T20:00:00Z,30.3288,-87.8293,1.969,12.63,1111122 
DISL,ioos:station:DISL:BSCA:1,2017-09-02T20:30:00Z,30.3288,-87.8293,1.954,12.52,1111122 
DISL,ioos:station:DISL:BSCA:1,2017-09-02T21:00:00Z,30.3288,-87.8293,1.928,12.32,1111122 
DISL,ioos:station:DISL:BSCA:1,2017-09-02T21:30:00Z,30.3288,-87.8293,1.907,12.17,1111122 
DISL,ioos:station:DISL:BSCA:1,2017-09-02T22:00:00Z,30.3288,-87.8293,1.882,11.85,1111122 
DISL,ioos:station:DISL:BSCA:1,2017-09-02T22:30:00Z,30.3288,-87.8293,1.863,12.29,1111122 
DISL,ioos:station:DISL:BSCA:1,2017-09-02T23:00:00Z,30.3288,-87.8293,1.847,12.45,1111122 
DISL,ioos:station:DISL:BSCA:1,2017-09-02T23:30:00Z,30.3288,-87.8293,1.843,12.14,1111122 
DISL,ioos:station:DISL:BSCA:1,2017-09-03T00:00:00Z,30.3288,-87.8293,1.823,12.51,1111122 
DISL,ioos:station:DISL:BSCA:1,2017-09-03T00:30:00Z,30.3288,-87.8293,1.818,12.92,1111122 
DISL,ioos:station:DISL:BSCA:1,2017-09-03T01:00:00Z,30.3288,-87.8293,1.824,12.78,1111122 
DISL,ioos:station:DISL:BSCA:1,2017-09-03T01:30:00Z,30.3288,-87.8293,1.837,12.63,1111122 
DISL,ioos:station:DISL:BSCA:1,2017-09-03T02:00:00Z,30.3288,-87.8293,1.855,12.7,1111122 
DISL,ioos:station:DISL:BSCA:1,2017-09-03T02:30:00Z,30.3288,-87.8293,1.866,12.38,1111122 
DISL,ioos:station:DISL:BSCA:1,2017-09-03T03:00:00Z,30.3288,-87.8293,1.896,12.56,1111122 
DISL,ioos:station:DISL:BSCA:1,2017-09-03T03:30:00Z,30.3288,-87.8293,1.916,12.06,1111122 
DISL,ioos:station:DISL:BSCA:1,2017-09-03T04:00:00Z,30.3288,-87.8293,1.955,12.67,1111122 
DISL,ioos:station:DISL:BSCA:1,2017-09-03T04:30:00Z,30.3288,-87.8293,1.965,12.99,1111122 
DISL,ioos:station:DISL:BSCA:1,2017-09-03T05:00:00Z,30.3288,-87.8293,2.015,12.46,1111122 
DISL,ioos:station:DISL:BSCA:1,2017-09-03T05:30:00Z,30.3288,-87.8293,2.004,12.59,1111122 
DISL,ioos:station:DISL:BSCA:1,2017-09-03T06:00:00Z,30.3288,-87.8293,2.025,13.4,1111122 
DISL,ioos:station:DISL:BSCA:1,2017-09-03T06:30:00Z,30.3288,-87.8293,2.017,12.26,1111122 
DISL,ioos:station:DISL:BSCA:1,2017-09-03T07:00:00Z,30.3288,-87.8293,2.024,12.36,1111122 
DISL,ioos:station:DISL:BSCA:1,2017-09-03T07:30:00Z,30.3288,-87.8293,2.039,12.66,1111122 
DISL,ioos:station:DISL:BSCA:1,2017-09-03T08:00:00Z,30.3288,-87.8293,2.052,12.19,1111122 
DISL,ioos:station:DISL:BSCA:1,2017-09-03T08:30:00Z,30.3288,-87.8293,2.068,12.52,1111122 
DISL,ioos:station:DISL:BSCA:1,2017-09-03T09:00:00Z,30.3288,-87.8293,2.074,12.91,1111122 
DISL,ioos:station:DISL:BSCA:1,2017-09-03T09:30:00Z,30.3288,-87.8293,2.105,12.81,1111122 
DISL,ioos:station:DISL:BSCA:1,2017-09-03T10:00:00Z,30.3288,-87.8293,2.129,12.71,1111122 
DISL,ioos:station:DISL:BSCA:1,2017-09-03T10:30:00Z,30.3288,-87.8293,2.162,12.74,1111122 
DISL,ioos:station:DISL:BSCA:1,2017-09-03T11:00:00Z,30.3288,-87.8293,2.185,12.85,1111122 
DISL,ioos:station:DISL:BSCA:1,2017-09-03T11:30:00Z,30.3288,-87.8293,2.206,12.98,1111122 
DISL,ioos:station:DISL:BSCA:1,2017-09-03T12:00:00Z,30.3288,-87.8293,2.221,13.02,1111122 
DISL,ioos:station:DISL:BSCA:1,2017-09-03T12:30:00Z,30.3288,-87.8293,2.243,13.12,1111122 
DISL,ioos:station:DISL:BSCA:1,2017-09-03T13:00:00Z,30.3288,-87.8293,2.259,12.91,1111122 
DISL,ioos:station:DISL:BSCA:1,2017-09-03T13:30:00Z,30.3288,-87.8293,2.27,12.86,1111122 
DISL,ioos:station:DISL:BSCA:1,2017-09-03T14:00:00Z,30.3288,-87.8293,2.276,12.86,1111122 
DISL,ioos:station:DISL:BSCA:1,2017-09-03T14:30:00Z,30.3288,-87.8293,2.274,13.01,1111122 
DISL,ioos:station:DISL:BSCA:1,2017-09-03T15:00:00Z,30.3288,-87.8293,2.273,12.98,1111122 
DISL,ioos:station:DISL:BSCA:1,2017-09-03T15:30:00Z,30.3288,-87.8293,2.27,12.96,1111122 
DISL,ioos:station:DISL:BSCA:1,2017-09-03T16:00:00Z,30.3288,-87.8293,2.262,13.17,1111122 
DISL,ioos:station:DISL:BSCA:1,2017-09-03T16:30:00Z,30.3288,-87.8293,2.237,12.94,1111122 
DISL,ioos:station:DISL:BSCA:1,2017-09-03T17:00:00Z,30.3288,-87.8293,2.217,12.82,1111122 
DISL,ioos:station:DISL:BSCA:1,2017-09-03T17:30:00Z,30.3288,-87.8293,2.174,12.79,1111122 
DISL,ioos:station:DISL:BSCA:1,2017-09-03T18:00:00Z,30.3288,-87.8293,2.137,12.91,1111122 
DISL,ioos:station:DISL:BSCA:1,2017-09-03T18:30:00Z,30.3288,-87.8293,2.101,12.85,1111122 
DISL,ioos:station:DISL:BSCA:1,2017-09-03T19:00:00Z,30.3288,-87.8293,2.091,12.94,1111122 
DISL,ioos:station:DISL:BSCA:1,2017-09-03T19:30:00Z,30.3288,-87.8293,2.063,12.94,1111122 
DISL,ioos:station:DISL:BSCA:1,2017-09-03T20:00:00Z,30.3288,-87.8293,2.028,12.88,1111122 
DISL,ioos:station:DISL:BSCA:1,2017-09-03T20:30:00Z,30.3288,-87.8293,1.995,12.71,1111122 
DISL,ioos:station:DISL:BSCA:1,2017-09-03T21:00:00Z,30.3288,-87.8293,1.966,12.88,1111122 
DISL,ioos:station:DISL:BSCA:1,2017-09-03T21:30:00Z,30.3288,-87.8293,1.923,12.74,1111122 
DISL,ioos:station:DISL:BSCA:1,2017-09-03T22:00:00Z,30.3288,-87.8293,1.899,12.73,1111122 
DISL,ioos:station:DISL:BSCA:1,2017-09-03T22:30:00Z,30.3288,-87.8293,1.88,12.77,1111122 
DISL,ioos:station:DISL:BSCA:1,2017-09-03T23:00:00Z,30.3288,-87.8293,1.867,12.69,1111122 
DISL,ioos:station:DISL:BSCA:1,2017-09-03T23:30:00Z,30.3288,-87.8293,1.847,12.63,1111122 
DISL,ioos:station:DISL:BSCA:1,2017-09-04T00:00:00Z,30.3288,-87.8293,1.848,12.54,1111122 
DISL,ioos:station:DISL:BSCA:1,2017-09-04T00:30:00Z,30.3288,-87.8293,1.85,12.59,1111122 
DISL,ioos:station:DISL:BSCA:1,2017-09-04T01:00:00Z,30.3288,-87.8293,1.843,12.54,1111122 
DISL,ioos:station:DISL:BSCA:1,2017-09-04T01:30:00Z,30.3288,-87.8293,1.85,12.4,1111122 
DISL,ioos:station:DISL:BSCA:1,2017-09-04T02:00:00Z,30.3288,-87.8293,1.856,12.49,1111122 
DISL,ioos:station:DISL:BSCA:1,2017-09-04T02:30:00Z,30.3288,-87.8293,1.866,12.45,1111122 
DISL,ioos:station:DISL:BSCA:1,2017-09-04T03:00:00Z,30.3288,-87.8293,1.883,12.76,1111122 
DISL,ioos:station:DISL:BSCA:1,2017-09-04T03:30:00Z,30.3288,-87.8293,1.891,12.49,1111122 
DISL,ioos:station:DISL:BSCA:1,2017-09-04T04:00:00Z,30.3288,-87.8293,1.925,12.59,1111122 
DISL,ioos:station:DISL:BSCA:1,2017-09-04T04:30:00Z,30.3288,-87.8293,1.945,12.66,1111122 
DISL,ioos:station:DISL:BSCA:1,2017-09-04T05:00:00Z,30.3288,-87.8293,1.965,12.68,1111122 
DISL,ioos:station:DISL:BSCA:1,2017-09-04T05:30:00Z,30.3288,-87.8293,1.981,12.61,1111122 
DISL,ioos:station:DISL:BSCA:1,2017-09-04T06:00:00Z,30.3288,-87.8293,2.001,12.83,1111122 
DISL,ioos:station:DISL:BSCA:1,2017-09-04T06:30:00Z,30.3288,-87.8293,2.014,12.59,1111122 
DISL,ioos:station:DISL:BSCA:1,2017-09-04T07:00:00Z,30.3288,-87.8293,2.033,12.56,1111122 
DISL,ioos:station:DISL:BSCA:1,2017-09-04T07:30:00Z,30.3288,-87.8293,2.047,12.53,1111122 
DISL,ioos:station:DISL:BSCA:1,2017-09-04T08:00:00Z,30.3288,-87.8293,2.058,12.56,1111122 
DISL,ioos:station:DISL:BSCA:1,2017-09-04T08:30:00Z,30.3288,-87.8293,2.082,12.34,1111122 
DISL,ioos:station:DISL:BSCA:1,2017-09-04T09:00:00Z,30.3288,-87.8293,2.11,12.43,1111122 
DISL,ioos:station:DISL:BSCA:1,2017-09-04T09:30:00Z,30.3288,-87.8293,2.126,12.78,1111122 
DISL,ioos:station:DISL:BSCA:1,2017-09-04T10:00:00Z,30.3288,-87.8293,2.151,12.47,1111122 
DISL,ioos:station:DISL:BSCA:1,2017-09-04T10:30:00Z,30.3288,-87.8293,2.163,12.8,1111122 
DISL,ioos:station:DISL:BSCA:1,2017-09-04T11:00:00Z,30.3288,-87.8293,2.184,12.71,1111122 
DISL,ioos:station:DISL:BSCA:1,2017-09-04T11:30:00Z,30.3288,-87.8293,2.206,12.46,1111122 
DISL,ioos:station:DISL:BSCA:1,2017-09-04T12:00:00Z,30.3288,-87.8293,2.227,12.48,1111122 
DISL,ioos:station:DISL:BSCA:1,2017-09-04T12:30:00Z,30.3288,-87.8293,2.257,12.5,1111122 
DISL,ioos:station:DISL:BSCA:1,2017-09-04T13:00:00Z,30.3288,-87.8293,2.278,12.72,1111122 
DISL,ioos:station:DISL:BSCA:1,2017-09-04T13:30:00Z,30.3288,-87.8293,2.29,12.58,1111122 
DISL,ioos:station:DISL:BSCA:1,2017-09-04T14:00:00Z,30.3288,-87.8293,2.31,12.41,1111122 
DISL,ioos:station:DISL:BSCA:1,2017-09-04T14:30:00Z,30.3288,-87.8293,2.311,12.66,1111122 
DISL,ioos:station:DISL:BSCA:1,2017-09-04T15:00:00Z,30.3288,-87.8293,2.315,12.41,1111122 
DISL,ioos:station:DISL:BSCA:1,2017-09-04T15:30:00Z,30.3288,-87.8293,2.327,12.47,1111122 
DISL,ioos:station:DISL:BSCA:1,2017-09-04T16:00:00Z,30.3288,-87.8293,2.308,12.64,1111122 
DISL,ioos:station:DISL:BSCA:1,2017-09-04T16:30:00Z,30.3288,-87.8293,2.302,12.49,1111122 
DISL,ioos:station:DISL:BSCA:1,2017-09-04T17:00:00Z,30.3288,-87.8293,2.282,12.42,1111122 
DISL,ioos:station:DISL:BSCA:1,2017-09-04T17:30:00Z,30.3288,-87.8293,2.255,12.69,1111122 
DISL,ioos:station:DISL:BSCA:1,2017-09-04T18:00:00Z,30.3288,-87.8293,2.239,12.71,1111122 
DISL,ioos:station:DISL:BSCA:1,2017-09-04T18:30:00Z,30.3288,-87.8293,2.206,12.74,1111122 
DISL,ioos:station:DISL:BSCA:1,2017-09-04T19:00:00Z,30.3288,-87.8293,2.169,12.61,1111122 
DISL,ioos:station:DISL:BSCA:1,2017-09-04T19:30:00Z,30.3288,-87.8293,2.129,12.47,1111122 
DISL,ioos:station:DISL:BSCA:1,2017-09-04T20:00:00Z,30.3288,-87.8293,2.096,13.09,1111122 
DISL,ioos:station:DISL:BSCA:1,2017-09-04T20:30:00Z,30.3288,-87.8293,2.064,12.62,1111122 
DISL,ioos:station:DISL:BSCA:1,2017-09-04T21:00:00Z,30.3288,-87.8293,2.031,12.61,1111122 
DISL,ioos:station:DISL:BSCA:1,2017-09-04T21:30:00Z,30.3288,-87.8293,2.011,12.6,1111122 
DISL,ioos:station:DISL:BSCA:1,2017-09-04T22:00:00Z,30.3288,-87.8293,1.981,12.71,1111122 
DISL,ioos:station:DISL:BSCA:1,2017-09-04T22:30:00Z,30.3288,-87.8293,1.956,12.29,1111122 
DISL,ioos:station:DISL:BSCA:1,2017-09-04T23:00:00Z,30.3288,-87.8293,1.929,12.85,1111122 
DISL,ioos:station:DISL:BSCA:1,2017-09-04T23:30:00Z,30.3288,-87.8293,1.913,12.22,1111122 
DISL,ioos:station:DISL:BSCA:1,2017-09-05T00:00:00Z,30.3288,-87.8293,1.902,12.28,1111122 
DISL,ioos:station:DISL:BSCA:1,2017-09-05T00:30:00Z,30.3288,-87.8293,1.882,11.99,1111122 
DISL,ioos:station:DISL:BSCA:1,2017-09-05T01:00:00Z,30.3288,-87.8293,1.881,11.98,1111122 
DISL,ioos:station:DISL:BSCA:1,2017-09-05T01:30:00Z,30.3288,-87.8293,1.881,11.84,1111122 
DISL,ioos:station:DISL:BSCA:1,2017-09-05T02:00:00Z,30.3288,-87.8293,1.904,11.69,1111122 
DISL,ioos:station:DISL:BSCA:1,2017-09-05T02:30:00Z,30.3288,-87.8293,1.903,11.69,1111122 
DISL,ioos:station:DISL:BSCA:1,2017-09-05T03:00:00Z,30.3288,-87.8293,1.922,11.7,1111122 
DISL,ioos:station:DISL:BSCA:1,2017-09-05T03:30:00Z,30.3288,-87.8293,1.94,11.72,1111122 
DISL,ioos:station:DISL:BSCA:1,2017-09-05T04:00:00Z,30.3288,-87.8293,1.97,11.87,1111122 
DISL,ioos:station:DISL:BSCA:1,2017-09-05T04:30:00Z,30.3288,-87.8293,1.991,11.5,1111122 
DISL,ioos:station:DISL:BSCA:1,2017-09-05T05:00:00Z,30.3288,-87.8293,2.001,11.99,1111122 
DISL,ioos:station:DISL:BSCA:1,2017-09-05T05:30:00Z,30.3288,-87.8293,2.019,11.71,1111122 
DISL,ioos:station:DISL:BSCA:1,2017-09-05T06:00:00Z,30.3288,-87.8293,2.037,11.6,1111122 
DISL,ioos:station:DISL:BSCA:1,2017-09-05T06:30:00Z,30.3288,-87.8293,2.057,11.46,1111122 
DISL,ioos:station:DISL:BSCA:1,2017-09-05T07:00:00Z,30.3288,-87.8293,2.078,11.46,1111122 
DISL,ioos:station:DISL:BSCA:1,2017-09-05T07:30:00Z,30.3288,-87.8293,2.091,11.54,1111122 
DISL,ioos:station:DISL:BSCA:1,2017-09-05T08:00:00Z,30.3288,-87.8293,2.096,11.49,1111122 
DISL,ioos:station:DISL:BSCA:1,2017-09-05T08:30:00Z,30.3288,-87.8293,2.102,11.69,1111122 
DISL,ioos:station:DISL:BSCA:1,2017-09-05T09:00:00Z,30.3288,-87.8293,2.109,11.69,1111122 
DISL,ioos:station:DISL:BSCA:1,2017-09-05T09:30:00Z,30.3288,-87.8293,2.125,11.93,1111122 
DISL,ioos:station:DISL:BSCA:1,2017-09-05T10:00:00Z,30.3288,-87.8293,2.137,11.56,1111122 
DISL,ioos:station:DISL:BSCA:1,2017-09-05T10:30:00Z,30.3288,-87.8293,2.146,11.51,1111122 
DISL,ioos:station:DISL:BSCA:1,2017-09-05T11:00:00Z,30.3288,-87.8293,2.162,11.83,1111122 
DISL,ioos:station:DISL:BSCA:1,2017-09-05T11:30:00Z,30.3288,-87.8293,2.175,11.37,1111122 
DISL,ioos:station:DISL:BSCA:1,2017-09-05T12:00:00Z,30.3288,-87.8293,2.19,11.61,1111122 
DISL,ioos:station:DISL:BSCA:1,2017-09-05T12:30:00Z,30.3288,-87.8293,2.215,11.96,1111122 
DISL,ioos:station:DISL:BSCA:1,2017-09-05T13:00:00Z,30.3288,-87.8293,2.242,11.61,1111122 
DISL,ioos:station:DISL:BSCA:1,2017-09-05T13:30:00Z,30.3288,-87.8293,2.26,11.75,1111122 
DISL,ioos:station:DISL:BSCA:1,2017-09-05T14:00:00Z,30.3288,-87.8293,2.275,11.64,1111122 
DISL,ioos:station:DISL:BSCA:1,2017-09-05T14:30:00Z,30.3288,-87.8293,2.286,11.57,1111122 
DISL,ioos:station:DISL:BSCA:1,2017-09-05T15:00:00Z,30.3288,-87.8293,2.301,11.51,1111122 
DISL,ioos:station:DISL:BSCA:1,2017-09-05T15:30:00Z,30.3288,-87.8293,2.309,11.52,1111122 
DISL,ioos:station:DISL:BSCA:1,2017-09-05T16:00:00Z,30.3288,-87.8293,2.313,12.57,1111122 
DISL,ioos:station:DISL:BSCA:1,2017-09-05T16:30:00Z,30.3288,-87.8293,2.318,11.47,1111122 
DISL,ioos:station:DISL:BSCA:1,2017-09-05T17:00:00Z,30.3288,-87.8293,2.324,11.38,1111122 
DISL,ioos:station:DISL:BSCA:1,2017-09-05T17:30:00Z,30.3288,-87.8293,2.311,11.68,1111122 
DISL,ioos:station:DISL:BSCA:1,2017-09-05T18:00:00Z,30.3288,-87.8293,2.305,11.43,1111122 
DISL,ioos:station:DISL:BSCA:1,2017-09-05T18:30:00Z,30.3288,-87.8293,2.286,11.53,1111122 
DISL,ioos:station:DISL:BSCA:1,2017-09-05T19:00:00Z,30.3288,-87.8293,2.271,11.74,1111122 
DISL,ioos:station:DISL:BSCA:1,2017-09-05T19:30:00Z,30.3288,-87.8293,2.229,11.86,1111122 
DISL,ioos:station:DISL:BSCA:1,2017-09-05T20:00:00Z,30.3288,-87.8293,2.195,12.04,1111122 
DISL,ioos:station:DISL:BSCA:1,2017-09-05T20:30:00Z,30.3288,-87.8293,2.165,12.06,1111122 
DISL,ioos:station:DISL:BSCA:1,2017-09-05T21:00:00Z,30.3288,-87.8293,2.131,11.83,1111122 
DISL,ioos:station:DISL:BSCA:1,2017-09-05T21:30:00Z,30.3288,-87.8293,2.108,11.57,1111122 
DISL,ioos:station:DISL:BSCA:1,2017-09-05T22:00:00Z,30.3288,-87.8293,2.069,11.71,1111122 
DISL,ioos:station:DISL:BSCA:1,2017-09-05T22:30:00Z,30.3288,-87.8293,2.056,11.61,1111122 
DISL,ioos:station:DISL:BSCA:1,2017-09-05T23:00:00Z,30.3288,-87.8293,2.037,11.69,1111122 
DISL,ioos:station:DISL:BSCA:1,2017-09-05T23:30:00Z,30.3288,-87.8293,2.016,11.83,1111122 
DISL,ioos:station:DISL:BSCA:1,2017-09-06T00:00:00Z,30.3288,-87.8293,2.013,11.61,1111122 
DISL,ioos:station:DISL:BSCA:1,2017-09-06T00:30:00Z,30.3288,-87.8293,2.019,11.8,1111122 
DISL,ioos:station:DISL:BSCA:1,2017-09-06T01:00:00Z,30.3288,-87.8293,2.017,11.67,1111122 
DISL,ioos:station:DISL:BSCA:1,2017-09-06T01:30:00Z,30.3288,-87.8293,2.053,11.23,1111122 
DISL,ioos:station:DISL:BSCA:1,2017-09-06T02:00:00Z,30.3288,-87.8293,2.042,11.49,1111122 
DISL,ioos:station:DISL:BSCA:1,2017-09-06T02:30:00Z,30.3288,-87.8293,2.062,11.29,1111122 
DISL,ioos:station:DISL:BSCA:1,2017-09-06T03:00:00Z,30.3288,-87.8293,2.076,11.34,1111122 
DISL,ioos:station:DISL:BSCA:1,2017-09-06T03:30:00Z,30.3288,-87.8293,2.079,11.34,1111122 
DISL,ioos:station:DISL:BSCA:1,2017-09-06T04:00:00Z,30.3288,-87.8293,2.077,11.34,1111122 
DISL,ioos:station:DISL:BSCA:1,2017-09-06T04:30:00Z,30.3288,-87.8293,2.061,12.52,1111122 
DISL,ioos:station:DISL:BSCA:1,2017-09-06T05:00:00Z,30.3288,-87.8293,2.066,12.45,1111122 
DISL,ioos:station:DISL:BSCA:1,2017-09-06T05:30:00Z,30.3288,-87.8293,2.054,12.58,1111122 
DISL,ioos:station:DISL:BSCA:1,2017-09-06T06:00:00Z,30.3288,-87.8293,2.066,12.58,1111122 
DISL,ioos:station:DISL:BSCA:1,2017-09-06T06:30:00Z,30.3288,-87.8293,2.086,12.58,1111122 
DISL,ioos:station:DISL:BSCA:1,2017-09-06T07:00:00Z,30.3288,-87.8293,2.076,12.58,1111122 
DISL,ioos:station:DISL:BSCA:1,2017-09-06T07:30:00Z,30.3288,-87.8293,2.152,12.49,1111122 
DISL,ioos:station:DISL:BSCA:1,2017-09-06T08:00:00Z,30.3288,-87.8293,2.17,12.51,1111122 
DISL,ioos:station:DISL:BSCA:1,2017-09-06T08:30:00Z,30.3288,-87.8293,2.066,12.53,1111122 
DISL,ioos:station:DISL:BSCA:1,2017-09-06T09:00:00Z,30.3288,-87.8293,2.006,12.52,1111122 
DISL,ioos:station:DISL:BSCA:1,2017-09-06T09:30:00Z,30.3288,-87.8293,1.94,12.54,1111122 
DISL,ioos:station:DISL:BSCA:1,2017-09-06T10:00:00Z,30.3288,-87.8293,1.966,12.54,1111122 
DISL,ioos:station:DISL:BSCA:1,2017-09-06T10:30:00Z,30.3288,-87.8293,2.027,12.51,1111122 
DISL,ioos:station:DISL:BSCA:1,2017-09-06T11:00:00Z,30.3288,-87.8293,2.096,12.27,1111122 
DISL,ioos:station:DISL:BSCA:1,2017-09-06T11:30:00Z,30.3288,-87.8293,2.156,12.14,1111122 
DISL,ioos:station:DISL:BSCA:1,2017-09-06T12:00:00Z,30.3288,-87.8293,2.201,12.3,1111122 
DISL,ioos:station:DISL:BSCA:1,2017-09-06T12:30:00Z,30.3288,-87.8293,2.222,12.3,1111122 
DISL,ioos:station:DISL:BSCA:1,2017-09-06T13:00:00Z,30.3288,-87.8293,2.197,12.39,1111122 
DISL,ioos:station:DISL:BSCA:1,2017-09-06T13:30:00Z,30.3288,-87.8293,2.189,12.43,1111122 
DISL,ioos:station:DISL:BSCA:1,2017-09-06T14:00:00Z,30.3288,-87.8293,2.189,12.27,1111122 